This is the latest recevied weather packets stored in our database for station/object KE8URB. If no packets are shown the sender has not sent any weather packets the latest 1 day(s).
| Time | Temp. | Humidity | Pressure | Rain* | Wind** | Luminosity | Snow |
|---|---|---|---|---|---|---|---|
| 1778050991 | 9.44° C | 99% | 1006.2 hPa | 3.05 mm | - | 0 W/m² | - |
| 1778050386 | 10° C | 99% | 1006.7 hPa | 3.05 mm | - | 0 W/m² | - |
| 1778050082 | 10° C | 99% | 1006.9 hPa | 1.27 mm | - | 0 W/m² | - |
| 1778049475 | 10° C | 99% | 1006.5 hPa | 1.78 mm | - | 0 W/m² | - |
| 1778049173 | 10° C | 99% | 1006.9 hPa | 1.27 mm | - | 0 W/m² | - |
| 1778048568 | 10° C | 99% | 1006.6 hPa | 1.78 mm | - | 0 W/m² | - |
| 1778048264 | 10° C | 99% | 1006.7 hPa | 3.05 mm | - | 0 W/m² | - |
| 1778047660 | 10° C | 99% | 1007.1 hPa | 1.78 mm | - | 0 W/m² | - |
| 1778046144 | 10.56° C | 99% | 1007.3 hPa | 3.05 mm | - | 0 W/m² | - |
| 1778045841 | 11.11° C | 99% | 1007.2 hPa | 3.56 mm | - | 0 W/m² | - |
| 1778045540 | 11.11° C | 99% | 1007.2 hPa | 3.05 mm | - | 0 W/m² | - |
| 1778045237 | 11.67° C | 99% | 1007.5 hPa | 6.1 mm | - | 0 W/m² | - |
| 1778044633 | 12.22° C | 99% | 1007.4 hPa | 1.78 mm | - | 0 W/m² | - |
| 1778044329 | 12.78° C | 99% | 1007.2 hPa | 3.05 mm | - | 0 W/m² | - |
| 1778044027 | 13.89° C | 99% | 1007.7 hPa | 6.1 mm | - | 0 W/m² | - |
| 1778043117 | 13.89° C | 99% | 1007.7 hPa | 3.05 mm | - | 0 W/m² | - |
| 1778042815 | 13.89° C | 99% | 1007.6 hPa | 3.05 mm | - | 0 W/m² | - |
| 1778042209 | 13.89° C | 99% | 1008 hPa | 4.83 mm | - | 0 W/m² | - |
| 1778041606 | 13.89° C | 99% | 1008.1 hPa | 3.05 mm | - | 0 W/m² | - |
| 1778041303 | 13.89° C | 99% | 1008 hPa | 3.05 mm | - | 0 W/m² | - |
| 1778041001 | 14.44° C | 99% | 1007.7 hPa | 4.32 mm | - | 0 W/m² | - |
| 1778040698 | 14.44° C | 99% | 1008.3 hPa | 4.83 mm | - | 0 W/m² | - |
| 1778040092 | 13.89° C | 99% | 1008.1 hPa | 1.27 mm | - | 0 W/m² | - |
| 1778039789 | 14.44° C | 99% | 1007.9 hPa | 1.27 mm | - | 0 W/m² | - |
| 1778039183 | 13.89° C | 99% | 1008.3 hPa | 3.05 mm | - | 0 W/m² | - |
* Rain latest hour (hover to see other rain measurements)
** Current wind speed in m/s (hover to see current wind gust speed)